Regional Weather Roundup
Issued by NWS

Home | Current Version | Previous Version | Text Only | Print | Product List | Glossary Off
Versions: 1 2 3 4 5 6 7 8 9 10 11 12 13 14 15 16 17 18 19 20 21 22 23 24 25 26 27

000
ASUS45 KCYS 230410
RWRWY

WYOMING REGIONAL WEATHER ROUNDUP
NATIONAL WEATHER SERVICE CHEYENNE WY
1000 PM MDT MON AUG 22 2016

NOTE:  "FAIR" INDICATES FEW OR NO CLOUDS BELOW 12,000 FEET
WITH NO SIGNIFICANT WEATHER AND/OR OBSTRUCTIONS TO VISIBILITY.

WYZ001-230500-
YELLOWSTONE NATIONAL PARK

CITY           SKY/WX    TMP DP  RH WIND       PRES   REMARKS
LK YELLOWSTONE   N/A     59  11  15 VRB7      30.13R
W YELLOWSTONE  NOT AVBL

$$
WYZ002>013-054>058-071-098>099-230500-
NORTHERN WYOMING

CITY           SKY/WX    TMP DP  RH WIND       PRES   REMARKS
JACKSON        FAIR      63  10  13 SW9       30.06R
CODY           FAIR      77  18  10 W12G26    29.85F
GREYBULL       FAIR      77  14   9 NW8       29.75R HAZE
WORLAND        FAIR      75  20  12 CALM      29.78R
SHERIDAN       FAIR      67  45  45 W10       29.73R
BUFFALO        FAIR      73  29  19 SW7       29.81F
GILLETTE       FAIR      58  45  62 S7        29.77S
HULETT         FAIR      70  39  32 E8        29.79S
NEWCASTLE      FAIR      70  27  19 NE3       29.78R

$$
WYZ014>020-022>026-101>103-230500-
CENTRAL WYOMING

CITY           SKY/WX    TMP DP  RH WIND       PRES   REMARKS
BIG PINEY      FAIR      51  13  21 N10       30.13R
PINEDALE       FAIR      50  21  32 W7        30.14R
DUBOIS         FAIR      55   7  14 NW6       30.09R
LANDER         FAIR      73  20  13 SW10      29.93R
RIVERTON       FAIR      74  17  11 W16       29.92R
CASPER         FAIR      70  31  23 S7        29.89R
DOUGLAS        FAIR      76  33  21 VRB6      29.88R

$$
WYZ021-027>030-104>119-230500-
SOUTHERN WYOMING

CITY           SKY/WX    TMP DP  RH WIND       PRES   REMARKS
EVANSTON       FAIR      65  25  22 NE6       30.17R
FORT BRIDGER   FAIR      65  22  19 W7        30.18R
ROCK SPRINGS   FAIR      67  19  16 W10       30.09R
DIXON          FAIR      60  36  40 NE5       30.14S
RAWLINS        FAIR      69  33  26 SW18G29   30.07R
SARATOGA       FAIR      61  37  41 SE13      30.13S
LARAMIE        FAIR      59  38  45 SW9       30.13S
CHEYENNE       FAIR      67  37  33 W12       30.02F
TORRINGTON     FAIR      73  39  29 W8        29.84R
PINE BLUFFS    FAIR      63  37  39 S5        29.96S

$$




USA.gov is the U.S. government's official web portal to all federal, state and local government web resources and services.